Location: Newark
(13.6797°N, 8.5297°E)
Time: 11:21:51
(UTC+00:00)

Altair - Pass Details

Date: 24 January 2020
Orbit: 1502 x 1682 km, 47.2° (Epoch: 25 February)

Event Time Altitude Azimuth Distance (km) Brightness Sun altitude
Rises 03:57:35 0° 183° (S) 4,737 10.2 -27.8°
Reaches altitude 10° 04:02:07 10° 164° (SSE) 3,789 9.9 -26.7°
Maximum altitude 04:07:56 18° 126° (SE) 3,269 10.0 -25.4°
Drops below altitude 10° 04:13:50 10° 89° (E) 3,876 10.6 -24.0°
Sets 04:18:28 0° 71° (ENE) 4,891 11.0 -22.9°
